This is the latest recevied weather packets stored in our database for station/object PY2UEP-1. If no packets are shown the sender has not sent any weather packets the latest 10 day(s).
| Time | Temp. | Humidity | Pressure | Rain* | Wind** | Luminosity | Snow |
|---|---|---|---|---|---|---|---|
| 1787460362 | 14.44° C | 70% | 1019.9 hPa | 0 mm | - | - | - |
| 1787460062 | 14.44° C | 68% | 1020.2 hPa | 0 mm | - | - | - |
| 1787459762 | 14.44° C | 68% | 1020.3 hPa | 0 mm | - | - | - |
| 1787459462 | 14.44° C | 67% | 1020.3 hPa | 0 mm | - | - | - |
| 1787459162 | 14.44° C | 66% | 1020.3 hPa | 0 mm | - | - | - |
| 1787458862 | 14.44° C | 65% | 1020.3 hPa | 0 mm | - | - | - |
| 1787458562 | 14.44° C | 65% | 1020.5 hPa | 0 mm | - | - | - |
| 1787458262 | 14.44° C | 64% | 1020.5 hPa | 0 mm | - | - | - |
| 1787457962 | 14.44° C | 63% | 1020.6 hPa | 0 mm | - | - | - |
| 1787457662 | 15° C | 63% | 1020.6 hPa | 0 mm | - | - | - |
| 1787457362 | 15° C | 63% | 1020.6 hPa | 0 mm | - | - | - |
| 1787457062 | 14.44° C | 65% | 1020.7 hPa | 0 mm | - | - | - |
| 1787456762 | 13.89° C | 66% | 1020.7 hPa | 0 mm | - | - | - |
| 1787456462 | 14.44° C | 65% | 1020.8 hPa | 0 mm | - | - | - |
| 1787456162 | 14.44° C | 64% | 1020.6 hPa | 0 mm | - | - | - |
| 1787455862 | 14.44° C | 63% | 1020.8 hPa | 0 mm | - | - | - |
| 1787455562 | 14.44° C | 63% | 1020.8 hPa | 0 mm | - | - | - |
| 1787455262 | 13.89° C | 66% | 1020.8 hPa | 0 mm | - | - | - |
| 1787454962 | 13.89° C | 66% | 1020.8 hPa | 0 mm | - | - | - |
| 1787454662 | 14.44° C | 65% | 1020.9 hPa | 0 mm | - | - | - |
| 1787454362 | 14.44° C | 64% | 1020.9 hPa | 0 mm | - | - | - |
| 1787454062 | 14.44° C | 64% | 1020.9 hPa | 0 mm | - | - | - |
| 1787453762 | 14.44° C | 64% | 1021 hPa | 0 mm | - | - | - |
| 1787453462 | 14.44° C | 65% | 1021 hPa | 0 mm | - | - | - |
| 1787453162 | 14.44° C | 63% | 1021 hPa | 0 mm | - | - | - |
* Rain since midnight (hover to see other rain measurements)
** Current wind speed in m/s (hover to see current wind gust speed)